Torna al catalogo

STARLINK-2674

AttivoComunicazioniVLEO
NORAD 48354·PAYLOAD·🇺🇸 United States

Lanciato May 4, 2021 da Cape Canaveral Space Force Station

Loading…

Prossimi Passaggi (prossime 24 ore)

TLE

AggiornatoSource: CelesTrak SupGP

Epoca: Sep 14, 2026, 20:28 UTC

1 48354C 21038B   26257.85326389  .00019934  00000+0  64102-3 0  2572
2 48354  53.1586 197.8919 0001207  94.0811 313.2373 15.31691994    12

Traccia STARLINK-2674 in tempo reale con AllMySat

Download on the App Store